This is the latest recevied weather packets stored in our database for station/object WC4PEM-12. If no packets are shown the sender has not sent any weather packets the latest 1 day(s).
| Time | Temp. | Humidity | Pressure | Rain* | Wind** | Luminosity | Snow |
|---|---|---|---|---|---|---|---|
| 1777997275 | 28.89° C | 57% | 1016.2 hPa | 0 mm | 2.24 m/s, 104° | - | - |
| 1777997093 | 28.89° C | 56% | 1016.1 hPa | 0 mm | 2.24 m/s, 104° | - | - |
| 1777996975 | 28.89° C | 56% | 1016.1 hPa | 0 mm | 2.24 m/s, 104° | - | - |
| 1777996709 | 28.89° C | 57% | 1016.1 hPa | 0 mm | 2.24 m/s, 104° | - | - |
| 1777996675 | 28.89° C | 57% | 1016.1 hPa | 0 mm | 2.24 m/s, 104° | - | - |
| 1777996501 | 28.33° C | 59% | 1016 hPa | 0 mm | 2.24 m/s, 104° | - | - |
| 1777996375 | 28.33° C | 59% | 1016 hPa | 0 mm | 2.24 m/s, 104° | - | - |
| 1777996193 | 28.33° C | 60% | 1015.9 hPa | 0 mm | 2.24 m/s, 104° | - | - |
| 1777996075 | 28.33° C | 60% | 1015.9 hPa | 0 mm | 2.24 m/s, 104° | - | - |
| 1777995775 | 27.78° C | 60% | 1016 hPa | 0 mm | 2.24 m/s, 104° | - | - |
| 1777995475 | 27.78° C | 58% | 1016.1 hPa | 0 mm | 2.24 m/s, 104° | - | - |
| 1777995175 | 28.33° C | 58% | 1016.2 hPa | 0 mm | 2.24 m/s, 104° | - | - |
| 1777994875 | 28.33° C | 58% | 1016.2 hPa | 0 mm | 2.24 m/s, 104° | - | - |
| 1777994706 | 27.78° C | 60% | 1016.1 hPa | 0 mm | 2.24 m/s, 104° | - | - |
| 1777994670 | 27.78° C | 62% | 1016.1 hPa | 0 mm | 2.24 m/s, 104° | - | - |
| 1777994575 | 27.78° C | 60% | 1016.1 hPa | 0 mm | 2.24 m/s, 104° | - | - |
| 1777994275 | 27.78° C | 62% | 1016.1 hPa | 0 mm | 2.24 m/s, 104° | - | - |
| 1777993975 | 27.22° C | 62% | 1016 hPa | 0 mm | 2.24 m/s, 104° | - | - |
| 1777993675 | 27.22° C | 62% | 1015.9 hPa | 0 mm | 2.24 m/s, 104° | - | - |
| 1777993375 | 27.22° C | 64% | 1016.2 hPa | 0 mm | 2.24 m/s, 104° | - | - |
| 1777993212 | 27.22° C | 62% | 1016.3 hPa | 0 mm | 2.24 m/s, 104° | - | - |
| 1777993075 | 27.22° C | 62% | 1016.3 hPa | 0 mm | 2.24 m/s, 104° | - | - |
| 1777992775 | 27.22° C | 65% | 1016.2 hPa | 0 mm | 2.24 m/s, 104° | - | - |
| 1777992475 | 27.22° C | 64% | 1016.2 hPa | 0 mm | 2.24 m/s, 104° | - | - |
| 1777992175 | 26.67° C | 65% | 1015.9 hPa | 0 mm | 2.24 m/s, 104° | - | - |
* Rain latest hour (hover to see other rain measurements)
** Current wind speed in m/s (hover to see current wind gust speed)